World > North America > United States > Arizona

Overgaard, Arizona Regional Weather

Lat: 34.39N, Lon: 110.55W
Wx Zone: AZZ016Web Search

Helpful Tip: Abbreviated, 7 Day, 14 Day Forecasts. There is a weather forecast for every taste.

Feedback
Overgaard Weather Map
UTC Time: 9/21/2020, 03:56
Your Time:

Overgaard, AZ Regional Weather

Expires:202009210400;;126589
ASUS45 KPSR 210310
RWRAZ 

ARIZONA HOURLY REGIONAL WEATHER ROUNDUP
NATIONAL WEATHER SERVICE PHOENIX AZ
800 PM MST SUN SEP 20 2020

NOTE: FAIR INDICATES FEW OR NO CLOUDS BELOW 12,000 FEET WITH NO
SIGNIFICANT WEATHER AND/OR OBSTRUCTIONS TO VISIBILITY.


AZZ004>008-015-016-018-210400-
NORTH CENTRAL ARIZONA
  
CITY           SKY/WX    TMP DP  RH WIND       PRES   REMARKS
GRAND CANYON   PTCLDY    56  25  30 CALM      30.24R                  
WILLIAMS       PTCLDY    68  32  26 S3        30.25R                  
PRESCOTT       PTCLDY    74  37  26 S7        30.12R                  
FLAGSTAFF      PTCLDY    62  23  22 CALM      30.28R                  
PAYSON         CLEAR     77  30  18 W3        30.15R                  
PAGE           CLEAR     80  34  19 CALM      30.02R                  
$$


SKY/WX - Weather  TMP - Temperature  DP - Dew Point  RH - Relative Humidity
WIND - Wind Direction/Speed PRES - Barometric Pressure VSB - Visibility
WCI - Wind Chill Index E13G22 Wind - East Wind 13 mph/Gusts of 22 mph